DUBAISAT-1 (35682 NORAD) Tracking and Keplerian Element Data

This shows tracking and keplerian element data for the satellite.

Feedback or suggestion? Click here.




ElementValue
Catalog35682
NameDUBAISAT-1
Epoch Orbit83174
Epoch Day34.94016274
Epoch Year2025
RAAN171.3414
Inclination97.9331
Eccentricity0.0009946
Argument of Perigee226.6276
Mean Anonmoly133.4105
Mean Motion14.7330641
Decay Rate2.692E-05
L11 35682U 09041B 25034.94016274 .00002692 00000+0 42355-3 0 9995
L22 35682 97.9331 171.3414 0009946 226.6276 133.4105 14.73306410831747



Live tracking and technical data element details for DUBAISAT-1 (NORAD 35682). DUBAISAT-1 can be tracked NOW for your location showing map with azimuth and elevation plus other details from your city location.







IsCatalogInMostPopularTable: catalog: 35682, numindb: 591
Update: records affected: 1



GetName: 35682 DUBAISAT-1

Hit Count: updated at: Thu, 15 May 2025 09:52:22 GMT